Time,TemperatureF,DewpointF,PressureIn,WindDirection,WindDirectionDegrees,WindSpeedMPH,WindSpeedGustMPH,Humidity,HourlyPrecipIn,Conditions,Clouds,dailyrainin,SolarRadiationWatts/m^2,SoftwareType,DateUTC
2013-03-27 00:02:00,46.0,45.0,30.05,ENE,75,2.0,4.0,95,-99.99,,,0.00,0.000000,,2013-03-27 07:02:00,
2013-03-27 00:12:00,46.0,45.0,30.05,ENE,75,2.0,4.0,95,-99.99,,,0.00,0.000000,,2013-03-27 07:12:00,
2013-03-27 00:42:00,46.0,45.0,30.04,ENE,71,2.0,4.0,96,-99.99,,,0.00,0.000000,,2013-03-27 07:42:00,
2013-03-27 00:53:00,46.0,45.0,30.04,ENE,71,2.0,4.0,96,-99.99,,,0.00,0.000000,,2013-03-27 07:53:00,
2013-03-27 01:02:00,46.0,45.0,30.04,ENE,71,2.0,4.0,96,-99.99,,,0.00,0.000000,,2013-03-27 08:02:00,
2013-03-27 01:12:00,46.0,45.0,30.04,ENE,71,2.0,4.0,96,-99.99,,,0.00,0.000000,,2013-03-27 08:12:00,
2013-03-27 01:43:00,46.0,45.0,30.03,ENE,77,3.0,5.0,96,-99.99,,,0.00,0.000000,,2013-03-27 08:43:00,
2013-03-27 01:52:00,46.0,45.0,30.03,ENE,77,3.0,5.0,96,-99.99,,,0.00,0.000000,,2013-03-27 08:52:00,
2013-03-27 02:01:00,46.0,45.0,30.03,ENE,77,3.0,5.0,96,-99.99,,,0.00,0.000000,,2013-03-27 09:01:00,
2013-03-27 02:11:00,46.0,45.0,30.03,ENE,77,3.0,5.0,96,-99.99,,,0.00,0.000000,,2013-03-27 09:11:00,
2013-03-27 02:42:00,45.0,44.0,30.02,ENE,65,2.0,3.0,96,-99.99,,,0.00,0.000000,,2013-03-27 09:42:00,
2013-03-27 02:52:00,45.0,44.0,30.02,ENE,65,2.0,3.0,96,-99.99,,,0.00,0.000000,,2013-03-27 09:52:00,
2013-03-27 03:02:00,45.0,44.0,30.02,ENE,65,2.0,3.0,96,-99.99,,,0.00,0.000000,,2013-03-27 10:02:00,
2013-03-27 03:12:00,45.0,44.0,30.02,ENE,65,2.0,3.0,96,-99.99,,,0.00,0.000000,,2013-03-27 10:12:00,
2013-03-27 03:42:00,43.0,42.0,30.02,NE,47,1.0,2.0,97,-99.99,,,0.00,0.000000,,2013-03-27 10:42:00,
2013-03-27 03:53:00,43.0,42.0,30.02,NE,47,1.0,2.0,97,-99.99,,,0.00,0.000000,,2013-03-27 10:53:00,
2013-03-27 04:02:00,43.0,42.0,30.02,NE,47,1.0,2.0,97,-99.99,,,0.00,0.000000,,2013-03-27 11:02:00,
2013-03-27 04:11:00,43.0,42.0,30.02,NE,47,1.0,2.0,97,-99.99,,,0.00,0.000000,,2013-03-27 11:11:00,
2013-03-27 04:42:00,42.0,42.0,30.02,ENE,76,3.0,5.0,97,-99.99,,,0.00,0.000000,,2013-03-27 11:42:00,
2013-03-27 04:52:00,42.0,42.0,30.02,ENE,76,3.0,5.0,97,-99.99,,,0.00,0.000000,,2013-03-27 11:52:00,
2013-03-27 05:02:00,42.0,42.0,30.02,ENE,76,3.0,5.0,97,-99.99,,,0.00,0.000000,,2013-03-27 12:02:00,
2013-03-27 05:11:00,42.0,42.0,30.02,ENE,76,3.0,5.0,97,-99.99,,,0.00,0.000000,,2013-03-27 12:11:00,
2013-03-27 05:42:00,42.0,42.0,30.01,ENE,74,4.0,7.0,97,-99.99,,,0.00,0.000000,,2013-03-27 12:42:00,
2013-03-27 05:52:00,42.0,42.0,30.01,ENE,74,4.0,7.0,97,-99.99,,,0.00,0.000000,,2013-03-27 12:52:00,
2013-03-27 06:02:00,42.0,42.0,30.01,ENE,74,4.0,7.0,97,-99.99,,,0.00,0.000000,,2013-03-27 13:02:00,
2013-03-27 06:11:00,42.0,42.0,30.01,ENE,74,4.0,7.0,97,-99.99,,,0.00,0.000000,,2013-03-27 13:11:00,
2013-03-27 06:42:00,42.0,41.0,30.01,ENE,72,4.0,7.0,98,-99.99,,,0.00,0.000000,,2013-03-27 13:42:00,
2013-03-27 06:53:00,42.0,41.0,30.01,ENE,72,4.0,7.0,98,-99.99,,,0.00,0.000000,,2013-03-27 13:53:00,
2013-03-27 07:02:00,42.0,41.0,30.01,ENE,72,4.0,7.0,98,-99.99,,,0.00,0.000000,,2013-03-27 14:02:00,
2013-03-27 07:11:00,42.0,41.0,30.01,ENE,72,4.0,7.0,98,-99.99,,,0.00,0.000000,,2013-03-27 14:11:00,
2013-03-27 07:42:00,42.0,41.0,30.01,ENE,75,4.0,7.0,98,-99.99,,,0.00,5.690000,,2013-03-27 14:42:00,
2013-03-27 07:52:00,42.0,41.0,30.01,ENE,75,4.0,7.0,98,-99.99,,,0.00,5.690000,,2013-03-27 14:52:00,
2013-03-27 08:02:00,42.0,41.0,30.01,ENE,75,4.0,7.0,98,-99.99,,,0.00,5.690000,,2013-03-27 15:02:00,
2013-03-27 08:11:00,42.0,41.0,30.01,ENE,75,4.0,7.0,98,-99.99,,,0.00,5.690000,,2013-03-27 15:11:00,
2013-03-27 08:42:00,43.0,42.0,30.02,ENE,68,3.0,6.0,97,-99.99,,,0.00,53.110001,,2013-03-27 15:42:00,
2013-03-27 08:52:00,43.0,42.0,30.02,ENE,68,3.0,6.0,97,-99.99,,,0.00,53.110001,,2013-03-27 15:52:00,
2013-03-27 09:02:00,43.0,42.0,30.02,ENE,68,3.0,6.0,97,-99.99,,,0.00,53.110001,,2013-03-27 16:02:00,
2013-03-27 09:12:00,43.0,42.0,30.02,ENE,68,3.0,6.0,97,-99.99,,,0.00,53.110001,,2013-03-27 16:12:00,
2013-03-27 09:42:00,44.0,43.0,30.02,ENE,72,3.0,5.0,96,-99.99,,,0.00,121.449997,,2013-03-27 16:42:00,
2013-03-27 09:52:00,44.0,43.0,30.02,ENE,72,3.0,5.0,96,-99.99,,,0.00,121.449997,,2013-03-27 16:52:00,
2013-03-27 10:02:00,44.0,43.0,30.02,ENE,72,3.0,5.0,96,-99.99,,,0.00,121.449997,,2013-03-27 17:02:00,
2013-03-27 10:11:00,44.0,43.0,30.02,ENE,72,3.0,5.0,96,-99.99,,,0.00,121.449997,,2013-03-27 17:11:00,
2013-03-27 10:44:00,46.0,43.0,30.02,East,86,4.0,7.0,88,-99.99,,,0.00,257.660004,,2013-03-27 17:44:00,
2013-03-27 10:52:00,46.0,43.0,30.02,East,86,4.0,7.0,88,-99.99,,,0.00,257.660004,,2013-03-27 17:52:00,
2013-03-27 11:02:00,46.0,43.0,30.02,East,86,4.0,7.0,88,-99.99,,,0.00,257.660004,,2013-03-27 18:02:00,
2013-03-27 11:12:00,46.0,43.0,30.02,East,86,4.0,7.0,88,-99.99,,,0.00,257.660004,,2013-03-27 18:12:00,
2013-03-27 11:42:00,49.0,43.0,30.02,ESE,105,2.0,4.0,79,-99.99,,,0.00,394.100006,,2013-03-27 18:42:00,
2013-03-27 11:53:00,49.0,43.0,30.02,ESE,105,2.0,4.0,79,-99.99,,,0.00,394.100006,,2013-03-27 18:53:00,
2013-03-27 12:02:00,49.0,43.0,30.02,ESE,105,2.0,4.0,79,-99.99,,,0.00,394.100006,,2013-03-27 19:02:00,
2013-03-27 12:12:00,49.0,43.0,30.02,ESE,105,2.0,4.0,79,-99.99,,,0.00,394.100006,,2013-03-27 19:12:00,
2013-03-27 12:42:00,52.0,43.0,30.01,East,92,3.0,6.0,72,-99.99,,,0.00,378.059998,,2013-03-27 19:42:00,
2013-03-27 12:52:00,52.0,43.0,30.01,East,92,3.0,6.0,72,-99.99,,,0.00,378.059998,,2013-03-27 19:52:00,
2013-03-27 13:02:00,52.0,43.0,30.01,East,92,3.0,6.0,72,-99.99,,,0.00,378.059998,,2013-03-27 20:02:00,
2013-03-27 13:12:00,52.0,43.0,30.01,East,92,3.0,6.0,72,-99.99,,,0.00,378.059998,,2013-03-27 20:12:00,
2013-03-27 13:42:00,55.0,42.0,30.00,SSE,155,3.0,6.0,61,-99.99,,,0.00,411.769989,,2013-03-27 20:42:00,
2013-03-27 13:52:00,55.0,42.0,30.00,SSE,155,3.0,6.0,61,-99.99,,,0.00,411.769989,,2013-03-27 20:52:00,
2013-03-27 14:02:00,55.0,42.0,30.00,SSE,155,3.0,6.0,61,-99.99,,,0.00,411.769989,,2013-03-27 21:02:00,
2013-03-27 14:12:00,55.0,42.0,30.00,SSE,155,3.0,6.0,61,-99.99,,,0.00,411.769989,,2013-03-27 21:12:00,
2013-03-27 14:43:00,58.0,42.0,29.99,ESE,104,1.0,3.0,55,-99.99,,,0.00,187.110001,,2013-03-27 21:43:00,
2013-03-27 14:52:00,58.0,42.0,29.99,ESE,104,1.0,3.0,55,-99.99,,,0.00,187.110001,,2013-03-27 21:52:00,
2013-03-27 15:02:00,58.0,42.0,29.99,ESE,104,1.0,3.0,55,-99.99,,,0.00,187.110001,,2013-03-27 22:02:00,
2013-03-27 15:12:00,58.0,42.0,29.99,ESE,104,1.0,3.0,55,-99.99,,,0.00,187.110001,,2013-03-27 22:12:00,
2013-03-27 15:42:00,58.0,46.0,29.98,SSE,159,4.0,9.0,63,-99.99,,,0.00,463.019989,,2013-03-27 22:42:00,
2013-03-27 15:52:00,58.0,46.0,29.98,SSE,159,4.0,9.0,63,-99.99,,,0.00,463.019989,,2013-03-27 22:52:00,
2013-03-27 16:02:00,58.0,46.0,29.98,SSE,159,4.0,9.0,63,-99.99,,,0.00,463.019989,,2013-03-27 23:02:00,
2013-03-27 16:11:00,58.0,46.0,29.98,SSE,159,4.0,9.0,63,-99.99,,,0.00,463.019989,,2013-03-27 23:11:00,
2013-03-27 16:42:00,64.0,45.0,29.96,SE,146,2.0,4.0,50,-99.99,,,0.00,572.270020,,2013-03-27 23:42:00,
2013-03-27 16:52:00,64.0,45.0,29.96,SE,146,2.0,4.0,50,-99.99,,,0.00,572.270020,,2013-03-27 23:52:00,
2013-03-27 17:02:00,64.0,45.0,29.96,SE,146,2.0,4.0,50,-99.99,,,0.00,572.270020,,2013-03-28 00:02:00,
2013-03-27 17:12:00,64.0,45.0,29.96,SE,146,2.0,4.0,50,-99.99,,,0.00,572.270020,,2013-03-28 00:12:00,
2013-03-27 17:42:00,63.0,43.0,29.96,East,83,5.0,8.0,47,-99.99,,,0.00,440.709991,,2013-03-28 00:42:00,
2013-03-27 17:52:00,63.0,43.0,29.96,East,83,5.0,8.0,47,-99.99,,,0.00,440.709991,,2013-03-28 00:52:00,
2013-03-27 18:02:00,63.0,43.0,29.96,East,83,5.0,8.0,47,-99.99,,,0.00,440.709991,,2013-03-28 01:02:00,
2013-03-27 18:11:00,63.0,43.0,29.96,East,83,5.0,8.0,47,-99.99,,,0.00,440.709991,,2013-03-28 01:11:00,
2013-03-27 18:42:00,58.0,44.0,29.97,East,89,3.0,5.0,58,-99.99,,,0.00,72.059998,,2013-03-28 01:42:00,
2013-03-27 18:52:00,58.0,44.0,29.97,East,89,3.0,5.0,58,-99.99,,,0.00,72.059998,,2013-03-28 01:52:00,
2013-03-27 19:02:00,58.0,44.0,-100.00,East,89,3.0,5.0,58,-99.99,,,0.00,72.059998,,2013-03-28 02:02:00,
2013-03-27 19:12:00,58.0,44.0,-100.00,East,89,3.0,5.0,58,-99.99,,,0.00,72.059998,,2013-03-28 02:12:00,
2013-03-27 20:02:00,56.0,47.0,29.98,SSE,147,3.0,10.0,69,-99.99,,,0.00,28.129999,,2013-03-28 03:02:00,
2013-03-27 20:12:00,56.0,47.0,-100.00,SSE,147,3.0,10.0,69,-99.99,,,0.00,28.129999,,2013-03-28 03:12:00,
2013-03-27 20:42:00,55.0,46.0,29.99,South,172,4.0,12.0,71,-99.99,,,0.00,0.120000,,2013-03-28 03:42:00,
2013-03-27 20:53:00,55.0,46.0,29.99,South,172,4.0,12.0,71,-99.99,,,0.00,0.120000,,2013-03-28 03:53:00,
2013-03-27 21:02:00,55.0,46.0,-100.00,South,172,4.0,12.0,71,-99.99,,,0.00,0.120000,,2013-03-28 04:02:00,
2013-03-27 21:12:00,55.0,46.0,-100.00,South,172,4.0,12.0,71,-99.99,,,0.00,0.120000,,2013-03-28 04:12:00,
2013-03-27 21:42:00,52.0,48.0,30.03,West,274,3.0,6.0,87,-99.99,,,0.00,0.120000,,2013-03-28 04:42:00,
2013-03-27 21:52:00,52.0,48.0,30.03,West,274,3.0,6.0,87,-99.99,,,0.00,0.120000,,2013-03-28 04:52:00,
2013-03-27 22:02:00,52.0,48.0,-100.00,West,274,3.0,6.0,87,-99.99,,,0.00,0.120000,,2013-03-28 05:02:00,
2013-03-27 22:12:00,52.0,48.0,-100.00,West,274,3.0,6.0,87,-99.99,,,0.00,0.120000,,2013-03-28 05:12:00,
2013-03-27 22:42:00,50.0,47.0,30.06,ENE,76,2.0,8.0,88,-99.99,,,0.00,0.120000,,2013-03-28 05:42:00,
2013-03-27 22:52:00,50.0,47.0,30.06,ENE,76,2.0,8.0,88,-99.99,,,0.00,0.120000,,2013-03-28 05:52:00,
2013-03-27 23:02:00,50.0,47.0,-100.00,ENE,76,2.0,8.0,88,-99.99,,,0.00,0.120000,,2013-03-28 06:02:00,
2013-03-27 23:12:00,50.0,47.0,-100.00,ENE,76,2.0,8.0,88,-99.99,,,0.00,0.120000,,2013-03-28 06:12:00,
2013-03-27 23:42:00,49.0,48.0,30.06,NE,51,1.0,4.0,95,-99.99,,,0.00,0.230000,,2013-03-28 06:42:00,
2013-03-27 23:52:00,49.0,48.0,30.06,NE,51,1.0,4.0,95,-99.99,,,0.00,0.230000,,2013-03-28 06:52:00,